Flag for U.S.A. Weather past 2 weeks in Milwaukee, Wisconsin, U.S.A.

Now
70 °F

Fog.


Feels Like: 70 °F
Forecast: 65 / 82 °F
Wind: 5 mph from South

Location: Milwaukee / Timmerman

Current Time: Sep 5, 2015 at 10:09:26 AM

Latest Report: Sep 5, 2015 at 9:45 AM


Visibility: 5 mi

Pressure: 30.10 "Hg

Humidity: 83%

Dew point: 64 °F

Location of MilwaukeeLocation

Historic Weather in Milwaukee — Graph

°F

Milwaukee temperature yesterday

Maximum temperature yesterday: 79 °F (at 2:45 PM)
Minimum temperature yesterday: 63 °F (at 3:55 AM)
Average temperature yesterday: 66 °F

Past Weeks' High & Low Weather Summary

 TemperatureHumidityPressure
High88 °F (Sep 1, 12:45 PM)94% (Aug 26, 11:35 PM)30.23 "Hg (Aug 26, 11:35 PM)
Low50 °F (Aug 27, 12:55 AM)29% (Aug 27, 11:45 AM)29.80 "Hg (Aug 23, 12:45 PM)
Average65 °F76%30.03 "Hg
* Reported Aug 21 8:45 AM — Sep 5 8:45 AM, Milwaukee, Weather by CustomWeather, © 2015

Note: Actual official high and low records may vary slightly from our data, if they occured in-between our weather recording intervals... More about our weather records

Advertising

Milwaukee weather history for previous 24 hours

 ConditionsComfort  
Time TempWeatherWind HumidityBarometerVisibility
8:45 AM
Sat, Sep 5
68 °FFog.No wind88%30.11 "Hg5 mi
7:45 AM66 °FFog.No wind94%30.10 "Hg2 mi
7:15 AM64 °FFog.No wind94%30.10 "Hg2 mi
6:55 AM64 °FFog.No wind88%30.09 "Hg2 mi
6:35 AM64 °FFog.No wind88%30.08 "Hg1 mi
6:15 AM64 °FFog.3 mph88%30.09 "Hg1 mi
5:55 AM64 °FFog.No wind88%30.08 "Hg2 mi
5:35 AM64 °FLight rain. Low clouds.3 mph88%30.08 "Hg3 mi
5:15 AM64 °FLight rain. Low clouds.3 mph94%30.08 "Hg4 mi
4:55 AM66 °FFog.3 mph88%30.08 "Hg5 mi
4:35 AM66 °FFog.No wind88%30.08 "Hg5 mi
4:15 AM64 °FFog.No wind94%30.07 "Hg5 mi
3:55 AM64 °FFog.No wind94%30.07 "Hg5 mi
3:35 AM64 °FFog.No wind94%30.06 "Hg5 mi
3:15 AM64 °FFog.No wind94%30.06 "Hg4 mi
2:55 AM64 °FFog.No wind94%30.07 "Hg4 mi
2:35 AM64 °FFog.No wind94%30.07 "Hg4 mi
2:15 AM64 °FFog.No wind94%30.07 "Hg4 mi
1:55 AM64 °FFog.3 mph94%30.08 "Hg5 mi
1:35 AM64 °FFog.3 mph94%30.07 "Hg5 mi
1:15 AM64 °FFog.No wind94%30.07 "Hg5 mi
12:55 AM64 °FFog.No wind88%30.07 "Hg5 mi
12:35 AM64 °FFog.No wind94%30.07 "Hg5 mi
12:15 AM64 °FFog.3 mph94%30.07 "Hg4 mi
11:55 PM
Fri, Sep 4
64 °FFog.No wind88%30.07 "Hg4 mi
11:35 PM64 °FFog.No wind94%30.07 "Hg5 mi
11:15 PM64 °FFog.No wind94%30.08 "Hg5 mi
10:35 PM66 °FPassing clouds.No wind88%30.07 "Hg7 mi
10:15 PM66 °FClear.No wind83%30.07 "Hg10 mi
9:55 PM66 °FClear.No wind83%30.07 "Hg10 mi
9:15 PM66 °FClear.No wind83%30.07 "Hg10 mi
8:45 PM68 °FClear.No wind83%30.07 "Hg10 mi
7:45 PM70 °FSunny.3 mph78%30.04 "Hg10 mi
4:45 PM72 °FScattered clouds.8 mph73%30.04 "Hg10 mi
3:45 PM75 °FScattered clouds.7 mph65%30.04 "Hg10 mi
2:45 PM79 °FScattered clouds.No wind58%30.03 "Hg10 mi
1:45 PM75 °FScattered clouds.No wind65%30.04 "Hg10 mi
12:45 PM73 °FPartly sunny.3 mph69%30.05 "Hg10 mi
11:45 AM72 °FOvercast.No wind73%30.06 "Hg10 mi
10:45 AM72 °FOvercast.No wind73%30.06 "Hg10 mi
Weather by CustomWeather, © 2015

See weather overviewHow to use our weather pages